Showing default

EGS (AJISAI), 16908

Orbit data source: Space-Track

EGS (AJISAI), 16908 is a payload satellite owned by NASDA (JP) in LEO that was launched on Tue, 12 Aug 1986 UTC via an H-1 launch vehicle from the Tanegashima Space Center (TNSTA). Payload-class satellites include a variety of spacecraft equipped with specific instruments for various scientific and technological missions. These include communications satellites like Starlink; space stations such as the ISS; scientific satellites like the Hubble; Earth observation satellites from companies like Planet Labs, Umbra, and HawkEye 360; GPS; miniature CubeSats for education and research; and military/defense satellites.

Loading next visibility...
Identifier
16908, 1986-061A
Orbit
LEO
Country
Flag of JPJP / JPN
Related business
Manufacturer
Kawasaki
Mission
Operational Civil Geodetic
Bus & Motor
EGP, Unknown motor
Mass
685 kg wet, 685 kg dry
Launch date (UTC)
1986-08-12 (39 years ago)
Launch vehicle
H-1
Launch site
Tanegashima Space Center (TNSTA)
Object type
Payload
Rocket body
Debris
Shape & HBR
Sphere, 1.1 m
Radar Cross Section
3.631 m², Large (>1 m²)

Expand to show TLE details & history
Last TLE update: 13 hours ago

TLE from 13 hours ago
0 EGS (AJISAI)
1 16908U 86061A   25286.45547787 -.00000099  00000-0 -11301-4 0  9995
2 16908  50.0083 186.0899 0011150 272.9106 259.6230 12.44513678449665
Epoch: 2025-10-13T10:55Z
TLE epoch observation values (Epoch: 2025-10-13T10:55:53.287Z)
Latitude
5.77684°
Longitude
175.01549°
Altitude
1,489.04 km
Speed
7.12 km/s
True Right ascension
00h 04m 58s
True Declination
5° 44' 45"
Sunlit
Object was in full shadow at epoch
Visualization orbit readout
Latitude
Unknown
Longitude
Unknown
Altitude
Unknown
Speed
Unknown
Apparent Right ascension
Unknown
Apparent Declination
Unknown
Sunlit
N/A
Visualization observer readout
Local Sidereal Time
18:35:52
Azimuth
Unknown
Elevation
Unknown
Doppler factor
Unknown
Orbital elements
Apogee altitude
1,496.972 km
Perigee altitude
1,479.43 km
Semi-major axis
7,866.338 km
Eccentricity
0.00112
Inclination
50.0083°
RAAN
186.0899°
Arg. of periapsis
272.9106°
True anomaly
259.49735°
Mean anomaly
259.623°
Eccentric anomaly
259.56017°
Mean motion
3.11089 °/min
Orbital period
115.72 mins
BSTAR
-0.000011301
Loading maneuver chart data...
Computing Atmospheric mass density...
Loading historical data...
Loading historical data...
Loading historical data...
Loading historical data...
Loading historical data...
Loading historical data...
Loading historical data...
Other satellites on launch #61 in the year 1986 (1986-08-12 UTC)

Documentation

Showing up to 5 results
|